THEMIS D

Last updated on Thu Dec 18 2025 00:02:41 GMT+0000 (Coordinated Universal Time)

1 30797U 07004D 25351.52045535 -.00000485 00000+0 00000+0 0 9998 2 30797 5.4124 88.2622 8389520 203.3927 126.0735 0.87836393 39488
UTC large
Height (km)
Speed (km/s)
/
Latitude / Longitude
Inclination (degrees)
Orbital Period (minutes)
Azimuth
Elevation
Range (km)
Doppler Factor

Next 0 passes for location: London (51.5072 / 0.1276)

Sorry there are no passes over London.